Location: Beaufort Park
(39.1418°N, 76.9433°W)
Time: 00:21:59
(UTC+00:00)

H-2A R/B - Pass Details

Date: 29 October 2020
Orbit: 733 x 837 km, 98.2° (Epoch: 03 December)

Event Time Altitude Azimuth Distance (km) Brightness Sun altitude
Exits shadow 22:58:23 - 123° (ESE) 3,086 4.7 -10.0°
Reaches altitude 10° 23:00:28 10° 111° (ESE) 2,437 4.1 -10.4°
Maximum altitude 23:04:23 21° 64° (ENE) 1,805 3.4 -11.2°
Drops below altitude 10° 23:08:20 10° 18° (NNE) 2,458 4.4 -11.9°
Sets 23:11:14 0° 3° (N) 3,395 5.2 -12.5°
